Content
SEND FEEDBACK

Daily
Averages
Monthly
Summary
Croatia

PAZIN, CROATIA


Home > Europe > Croatia
Elevation: 95 meters     Latitude: 45 31N     Longitude: 013 34E

WEATHER
 
SELECT A DAY
Number of Records: 265,885;   Date Range: 1/10/97 - 8/28/14
 
SHARE

PRINT THIS DATA

[ ← Previous Day ]
WEATHER ALMANAC - 7 DECEMBER, 2013
[ Next Day → ]
[ °F ]   °C
Weather ElementAverageHighLow
Temperature4.1 °C11 °C (11:30 am)0 °C (4:30 am)
Dewpoint-1.9 °C2 °C (1:30 pm)-4 °C (2:30 am)
Humidity66.2 %93 % (12:30 am)47 % (11:30 am)
Barometer1022 hPa1026.1 hPa (10:00 pm)1016.3 hPa (12:30 am)
Wind Speed13.7 km/h24.1 km/h (7:30 am)
Weather ElementAverage
Visibility10 km
Wind DirectionESE (128.5 °)

Weather ElementTotal
Precipitation---
Heating Degree Days12.8 (Base 18.3)
Averaged from 47 records on 7 December, 2013
WEATHER CONDITIONS BREAKOUT
WIND DIRECTION BREAKOUT
WEATHER BY HOUR - 7 DECEMBER, 2013
[ °F ]   °C
Local TimeTemperatureDewpointHumidityBarometerVisibilityWind DirectionWind SpeedGust SpeedPrecipitationEventsConditions
12:30 AM2 °C1 °C93 %1016.3 hPa10 kmSE (130°)14.8 km/h
1:00 AM2 °C0 °C87 %1016.3 hPa10 kmSE (140°)11.1 km/h
1:30 AM2 °C-1 °C81 %1017.3 hPa10 kmSE (140°)14.8 km/h
2:00 AM2 °C-2 °C75 %1017.3 hPa10 kmSE (140°)9.3 km/h
2:30 AM3 °C-4 °C60 %1017.3 hPa10 kmSE (130°)13 km/h
3:00 AM2 °C-3 °C70 %1017.3 hPa10 kmSE (130°)16.7 km/h
3:30 AM2 °C-3 °C70 %1017.3 hPa10 kmSE (130°)13 km/h
4:00 AM1 °C-3 °C75 %1017.9 hPa10 kmESE (120°)20.4 km/h
4:30 AM0 °C-3 °C80 %1017.9 hPa10 kmSE (130°)22.2 km/h
5:00 AM1 °C-3 °C75 %1017.9 hPa10 kmESE (120°)22.2 km/h
5:30 AM1 °C-3 °C75 %1017.9 hPa10 kmESE (120°)20.4 km/h
6:00 AM0 °C-3 °C80 %1019 hPaESE (120°)20.4 km/hClear
6:30 AM0 °C-4 °C75 %1019 hPaESE (120°)22.2 km/hClear
7:00 AM1 °C-4 °C70 %1019 hPaESE (120°)22.2 km/hClear
7:30 AM1 °C-4 °C70 %1020 hPaESE (120°)24.1 km/hClear
8:00 AM0 °C-4 °C75 %1020 hPaESE (120°)22.2 km/hClear
8:30 AM1 °C-4 °C70 %1021 hPaSE (130°)14.8 km/hClear
9:00 AM2 °C-4 °C65 %1022 hPaSE (130°)11.1 km/hClear
9:30 AM5 °C-3 °C57 %1022 hPaVariable3.7 km/hClear
10:00 AM5 °C-2 °C61 %1022 hPaESE (120°)7.4 km/hClear
10:30 AM6 °C-2 °C57 %1023 hPaESE (120°)11.1 km/hClear
11:00 AM9 °C0 °C54 %1023 hPaVariable3.7 km/hClear
11:30 AM11 °C0 °C47 %1023 hPaVariable1.9 km/hClear
12:00 PM9 °C0 °C54 %1023 hPaWNW (290°)5.6 km/hClear
12:30 PM10 °C0 °C50 %1023 hPaVariable3.7 km/hClear
1:00 PM11 °C1 °C50 %1023 hPaWNW (290°)5.6 km/hClear
1:30 PM10 °C2 °C58 %1023 hPaWNW (290°)7.4 km/hClear
2:00 PM11 °C1 °C50 %1023 hPaWNW (290°)5.6 km/hClear
2:30 PM11 °C2 °C54 %1023 hPaWest (280°)3.7 km/hClear
3:00 PM10 °C2 °C58 %1023 hPaWest (280°)5.6 km/hClear
3:30 PM9 °C0 °C54 %1023 hPaVariable1.9 km/hClear
4:00 PM7 °C0 °C61 %1024 hPaVariable1.9 km/hClear
4:30 PM6 °C-1 °C61 %1024 hPaESE (120°)11.1 km/hClear
5:00 PM4 °C-1 °C70 %1024 hPaESE (120°)14.8 km/hClear
5:30 PM4 °C-2 °C65 %1024 hPaESE (120°)18.5 km/hClear
6:00 PM3 °C-2 °C70 %1024 hPaESE (120°)20.4 km/hClear
6:30 PM3 °C-3 °C65 %1025.1 hPaESE (120°)22.2 km/hClear
7:00 PM3 °C-3 °C65 %1025.1 hPaESE (120°)24.1 km/hClear
7:30 PM3 °C-3 °C65 %1025.1 hPaESE (120°)24.1 km/hClear
8:00 PM3 °C-3 °C65 %1025.1 hPaESE (120°)16.7 km/hClear
8:30 PM2 °C-4 °C65 %1025.1 hPa10 kmESE (120°)18.5 km/hScattered Clouds
9:00 PM2 °C-3 °C70 %1025.1 hPaESE (120°)18.5 km/hClear
9:30 PM3 °C-3 °C65 %1025.1 hPaESE (120°)16.7 km/hClear
10:00 PM3 °C-3 °C65 %1026.1 hPa10 kmESE (120°)11.1 km/hMostly Cloudy
10:30 PM3 °C-3 °C65 %1026.1 hPa10 kmESE (120°)13 km/h
11:00 PM2 °C-2 °C75 %1026.1 hPa10 kmESE (110°)11.1 km/hScattered Clouds
11:30 PM3 °C-2 °C70 %1026.1 hPa10 kmESE (120°)16.7 km/hMostly Cloudy
Hourly data recorded from LJPZ, located 0 kilometers away from Pazin, Croatia







STORIES FROM OUR PARTNERS